Skip Page Navigation
NASA JPL Caltech
NASA Logo - Jet Propulsion Laboratory + View the NASA Portal
+ Center for Near-Earth Object Studies
JPL Home Earth Solar System Stars & Galaxies Technology
JPL Solar System Dynamics
BODIES ORBITS EPHEMERIDES TOOLS PHYSICAL DATA DISCOVERY FAQ SITE MAP
IMPORTANT: The SSD Announcement email list is now available. Major changes are coming in the near future, including possible hostname and/or URL changes. To be notified of such changes, subscribe to this email list.

Please visit this page for more details.


JPL Small-Body Database Browser
Search: [ help ]  
154836 (2004 RS29)
Classification: Main-belt Asteroid          SPK-ID: 2154836
Ephemeris | Orbit Diagram | Orbital Elements | Mission Design | Physical Parameters | Discovery Circumstances | Close-Approach Data ]

[ show orbit diagram ]
Orbital Elements at Epoch 2459000.5 (2020-May-31.0) TDB
Reference: JPL 14 (heliocentric ecliptic J2000)
 Element Value Uncertainty (1-sigma)   Units 
e .1577970787514965 7.7413e-08  
a 2.701782605417429 2.4536e-08 au
q 2.275449202860952 2.0178e-07 au
i 5.167694511313588 6.9456e-06 deg
node 142.3987581906203 7.2008e-05 deg
peri 223.1212181520685 7.5151e-05 deg
M 171.9830411639381 2.3354e-05 deg
tp 2458225.579495898685
(2018-Apr-17.07949590)
0.00010143 TDB
period 1622.086570794799
4.44
2.2096e-05
6.05e-08
d
yr
n .2219363667030454 3.0232e-09 deg/d
Q 3.128116007973906 2.8407e-08 au
  Orbit Determination Parameters
   # obs. used (total)      230  
   data-arc span      6635 days (18.17 yr)  
   first obs. used      2000-10-31  
   last obs. used      2018-12-31  
   planetary ephem.      DE431  
   SB-pert. ephem.      SB431-N16  
   condition code      0  
   norm. resid. RMS      .57978  
   source      ORB  
   producer      Otto Matic  
   solution date      2019-Jul-13 19:00:05  

Additional Information
 Earth MOID = 1.27659 au 
 Jupiter MOID = 2.33326 au 
 T_jup = 3.343 
[ show covariance matrix ]

Ephemeris | Orbit Diagram | Orbital Elements | Mission Design | Physical Parameters | Discovery Circumstances | Close-Approach Data ]

Physical Parameter Table
Parameter Symbol Value Units Sigma Reference Notes
absolute magnitude H 16.1   n/a MPO454006  

154836 (2004 RS29)          Discovered 2004-Sep-07 by LINEAR at Socorro
Reference: 20070402/Numbers.arcLast Updated: 2007-04-04

[ show close-approach data ]
Alternate Designations
 2004 RS29 = 2000 UP108 
Ephemeris | Orbit Diagram | Orbital Elements | Mission Design | Physical Parameters | Discovery Circumstances | Close-Approach Data ]
ABOUT SSD CREDITS/AWARDS PRIVACY/COPYRIGHT GLOSSARY LINKS
FirstGov 2020-Feb-20 22:05 UT
(server date/time)  
NASA Home Page
Site Manager:   Ryan S. Park
Webmaster  Alan B. Chamberlin